Showing default

CENTISPACE-1 S8, 62577

Orbit data source: Space-Track

CENTISPACE-1 S8, 62577 is a payload satellite owned by Centispace (CN) in LEO that was launched on Mon, 13 Jan 2025 UTC via a JIELONG-3 launch vehicle from the Yellow Sea Launch Area, China (YSLA). Payloads include a variety of satellites, spacecraft, and rockets equipped with specific instruments for various scientific and technological missions. These include communications satellites like Starlink; space stations such as the ISS; scientific satellites like the Hubble; Earth observation satellites from companies like Planet Labs, Umbra, and HawkEye 360; GPS; miniature CubeSats for education and research; and military/defense satellites.

Loading next visibility...
CENTISPACE-1 S8 details
Identifier
62577, 2025-007C
Orbit
LEO
Last TLE update9 hours ago
Origin
Flag of CNCentispace (CN / PRC)
ManufacturerDFH Shenzhen
MissionOperational spacecraft
Bus & MotorWK01, Unknown motor
Mass160 kg wet, 160 kg dry
Launch date (UTC)
2025-01-13 (3 weeks ago)
Launch vehicle
JIELONG-3
Launch site
Yellow Sea Launch Area, China (YSLA)
Object type
Payload
Rocket body
Debris
Shape & HBRUnknown
Radar Cross SectionMedium (>0.1 m² and <1 m²)

Expand to show TLE details & history

TLE from 9 hours ago
0 CENTISPACE-1 S8
1 62577U 25007C   25035.77975532  .00003959  00000-0  57828-3 0  9990
2 62577  54.9862  35.5664 0017620 358.0106   2.0822 14.77559632  3344
Epoch: 2025-02-04T18:42Z
Definitive object data (Epoch: 2025-02-04T18:42:50.859Z)
Latitude
Longitude-20.32565°
Altitude625.754 km
Speed7.553 km/s
True Right ascension02h 22m 15s
True Declination0° 00' 00"
Sunlit
Object was in daylight at TLE epoch
Visualization TLE readout
Latitude-29.67974°
Longitude-178.48079°
Altitude655.961 km
Speed7.524 km/s
Apparent Right ascension16h 43m 11s
Apparent Declination-35° 18' 28"
Sunlit
Object is in daylight
Visualization observer readout
Local Sidereal Time05:50:22
Azimuth76.183° E
Elevation-75.944°
Doppler factor1
Orbital elements
Apogee altitude649.364 km
Perigee altitude624.643 km
Semi-major axis7,015.14 km
Eccentricity0.001762
Inclination54.9862°
RAAN35.5664°
Arg. of periapsis358.0106°
True anomaly2.08955°
Mean anomaly2.0822°
Eccentric anomaly2.08587°
Mean motion3.69393 °/min
BSTAR0.00057828
Orbital period97.46 mins
Loading maneuver chart data...
Loading historical data...
Loading historical data...
Loading historical data...
Loading historical data...
Loading historical data...
Loading historical data...
Loading historical data...

CENTISPACE-1 S8 Visibility forecast

Observer location: undefined°, undefined

Span
Click to sort rows by Start time (UTC) header in descending order
Start Az.
Max El. time (UTC)
Max El. Az.
Max El.
End time (UTC)
End Az.
5 mins2025-02-05 04:44:38.078Z306.453° NW2025-02-05 04:46:38.078Z334.899° NNW16.22°2025-02-05 04:49:38.078Z18.375° NNE
5 mins2025-02-05 08:10:38.078Z348.012° N2025-02-05 08:12:38.078Z22.431° NNE21.833°2025-02-05 08:15:38.078Z71.932° E
7 mins2025-02-05 09:51:38.078Z308.69° NW2025-02-05 09:54:38.078Z219.954° SW44.368°2025-02-05 09:58:38.078Z140.083° SSE
7 mins2025-02-06 01:43:38.078Z197.715° SSW2025-02-06 01:46:38.078Z122.928° SE36.902°2025-02-06 01:50:38.078Z57.588° ENE
6 mins2025-02-06 03:25:38.078Z282.2° WNW2025-02-06 03:27:38.078Z320.909° NNW26.634°2025-02-06 03:31:38.078Z28.971° NE
|